| time (UTC) | temp C | wind direction | speed KPH | gust KPH | rain 1hr cm | rain 24hr cm | rain mn cm | humidity % | barometer mb |
| 20260503211459 | 18 | 279 | 8.0 | 11.3 | 0.00 | 0.00 | 0.00 | 38 | |
| 20260503210954 | 17 | 308 | 6.4 | 24.1 | 0.00 | 0.00 | 0.00 | 38 | |
| 20260503210451 | 18 | 270 | 8.0 | 20.9 | 0.00 | 0.00 | 0.00 | 37 | |
| 20260503205946 | 17 | 315 | 6.4 | 16.1 | 0.00 | 0.00 | 0.00 | 39 | |
| 20260503205443 | 17 | 251 | 9.7 | 20.9 | 0.00 | 0.00 | 0.00 | 37 | |
| 20260503204939 | 17 | 290 | 11.3 | 22.5 | 0.00 | 0.00 | 0.00 | 37 | |
| 20260503204436 | 17 | 279 | 4.8 | 9.7 | 0.00 | 0.00 | 0.00 | 38 | |
| 20260503203933 | 18 | 317 | 9.7 | 12.9 | 0.00 | 0.00 | 0.00 | 36 | |
| 20260503203431 | 17 | 265 | 3.2 | 11.3 | 0.00 | 0.00 | 0.00 | 38 | |
| 20260503202927 | 17 | 194 | 4.8 | 14.5 | 0.00 | 0.00 | 0.00 | 38 | |
| 20260503202426 | 18 | 291 | 3.2 | 11.3 | 0.00 | 0.00 | 0.00 | 37 | |
| 20260503201924 | 18 | 316 | 8.0 | 14.5 | 0.00 | 0.00 | 0.00 | 36 | |
| 20260503201421 | 18 | 258 | 11.3 | 12.9 | 0.00 | 0.00 | 0.00 | 34 | |
| 20260503200918 | 18 | 357 | 3.2 | 14.5 | 0.00 | 0.00 | 0.00 | 37 | |
| 20260503200414 | 18 | 245 | 1.6 | 22.5 | 0.00 | 0.00 | 0.00 | 36 | |
| 20260503195911 | 18 | 284 | 6.4 | 14.5 | 0.00 | 0.00 | 0.00 | 35 | |
| 20260503195409 | 18 | 254 | 6.4 | 24.1 | 0.00 | 0.00 | 0.00 | 37 | |
| 20260503194905 | 18 | 169 | 1.6 | 11.3 | 0.00 | 0.00 | 0.00 | 36 | |
| 20260503194402 | 18 | 317 | 8.0 | 22.5 | 0.00 | 0.00 | 0.00 | 36 | |
| 20260503193858 | 18 | 224 | 4.8 | 9.7 | 0.00 | 0.00 | 0.00 | 38 | |
| 20260503193353 | 18 | 256 | 8.0 | 12.9 | 0.00 | 0.00 | 0.00 | 37 | |
| 20260503192849 | 17 | 289 | 3.2 | 14.5 | 0.00 | 0.00 | 0.00 | 38 | |
| 20260503192345 | 17 | 268 | 1.6 | 20.9 | 0.00 | 0.00 | 0.00 | 38 | |
| 20260503191841 | 17 | 348 | 9.7 | 14.5 | 0.00 | 0.00 | 0.00 | 37 | |
| 20260503191339 | 17 | 309 | 3.2 | 4.8 | 0.00 | 0.00 | 0.00 | 38 | |
| 20260503190835 | 17 | 247 | 4.8 | 22.5 | 0.00 | 0.00 | 0.00 | 36 | |
| 20260503190332 | 17 | 216 | 4.8 | 14.5 | 0.00 | 0.00 | 0.00 | 38 | |
| 20260503185829 | 17 | 278 | 4.8 | 16.1 | 0.00 | 0.00 | 0.00 | 37 | |
| 20260503185325 | 18 | 339 | 9.7 | 20.9 | 0.00 | 0.00 | 0.00 | 35 | |
| 20260503184820 | 18 | 264 | 6.4 | 9.7 | 0.00 | 0.00 | 0.00 | 36 | |
| 20260503184316 | 18 | 268 | 11.3 | 14.5 | 0.00 | 0.00 | 0.00 | 35 | |
| 20260503183812 | 17 | 261 | 9.7 | 17.7 | 0.00 | 0.00 | 0.00 | 36 | |
| 20260503183309 | 18 | 257 | 11.3 | 20.9 | 0.00 | 0.00 | 0.00 | 36 | |
| 20260503182807 | 18 | 307 | 6.4 | 12.9 | 0.00 | 0.00 | 0.00 | 37 | |
| 20260503182306 | 18 | 277 | 9.7 | 20.9 | 0.00 | 0.00 | 0.00 | 37 | |
| 20260503181803 | 18 | 264 | 9.7 | 12.9 | 0.00 | 0.00 | 0.00 | 36 | |
| 20260503181300 | 17 | 304 | 6.4 | 14.5 | 0.00 | 0.00 | 0.00 | 37 | |
| 20260503180756 | 17 | 262 | 4.8 | 11.3 | 0.00 | 0.00 | 0.00 | 38 | |
| 20260503180254 | 17 | 264 | 4.8 | 17.7 | 0.00 | 0.00 | 0.00 | 38 | |
| 20260503175750 | 18 | 312 | 8.0 | 22.5 | 0.00 | 0.00 | 0.00 | 36 | |
| 20260503175249 | 18 | 263 | 3.2 | 14.5 | 0.00 | 0.00 | 0.00 | 38 | |
| 20260503174744 | 17 | 230 | 1.6 | 12.9 | 0.00 | 0.00 | 0.00 | 40 | |
| 20260503174242 | 17 | 248 | 3.2 | 11.3 | 0.00 | 0.00 | 0.00 | 40 | |
| 20260503173742 | 16 | 293 | 8.0 | 12.9 | 0.00 | 0.00 | 0.00 | 39 | |
| 20260503173238 | 16 | 262 | 14.5 | 17.7 | 0.00 | 0.00 | 0.00 | 38 | |
| 20260503172735 | 16 | 281 | 1.6 | 11.3 | 0.00 | 0.00 | 0.00 | 38 | |
| 20260503172232 | 16 | 233 | 6.4 | 16.1 | 0.00 | 0.00 | 0.00 | 39 | |
| 20260503171729 | 16 | 328 | 9.7 | 16.1 | 0.00 | 0.00 | 0.00 | 38 | |
| 20260503171226 | 16 | 209 | 3.2 | 20.9 | 0.00 | 0.00 | 0.00 | 39 | |
| 20260503170723 | 16 | 305 | 6.4 | 16.1 | 0.00 | 0.00 | 0.00 | 38 | |
| 20260503170220 | 16 | 204 | 4.8 | 16.1 | 0.00 | 0.00 | 0.00 | 38 | |
| 20260503160142 | 15 | 244 | 4.8 | 12.9 | 0.00 | 0.00 | 0.00 | 40 | |
| 20260503150612 | 15 | 208 | 4.8 | 11.3 | 0.00 | 0.00 | 0.00 | 44 | |
| 20260503150108 | 15 | 310 | 3.2 | 4.8 | 0.00 | 0.00 | 0.00 | 42 | |
| 20260503131001 | 10 | 294 | 4.8 | 11.3 | 0.00 | 0.00 | 0.00 | 47 | |
| 20260503130459 | 10 | 295 | 4.8 | 11.3 | 0.00 | 0.00 | 0.00 | 49 | |
| 20260503110344 | 3 | 235 | 3.2 | 4.8 | 0.00 | 0.00 | 0.00 | 64 | |
| 20260503090235 | 1 | 238 | 0.0 | 1.6 | 0.00 | 0.00 | 0.00 | 71 | |
| 20260503081202 | 2 | 248 | 0.0 | 1.6 | 0.00 | 0.00 | 0.00 | 72 | |
| 20260503080658 | 2 | 244 | 0.0 | 1.6 | 0.00 | 0.00 | 0.00 | 72 | |
| 20260503080155 | 2 | 247 | 0.0 | 1.6 | 0.00 | 0.00 | 0.00 | 71 | |
| 20260503072632 | 2 | 251 | 0.0 | 0.0 | 0.00 | 0.00 | 0.00 | 72 | |
| 20260503072129 | 2 | 252 | 0.0 | 1.6 | 0.00 | 0.00 | 0.00 | 72 | |
| 20260503071626 | 2 | 240 | 0.0 | 0.0 | 0.00 | 0.00 | 0.00 | 72 | |
| 20260503071122 | 2 | 236 | 0.0 | 0.0 | 0.00 | 0.00 | 0.00 | 72 | |
| 20260503070619 | 2 | 260 | 1.6 | 1.6 | 0.00 | 0.00 | 0.00 | 73 | |
| 20260503070118 | 2 | 256 | 0.0 | 0.0 | 0.00 | 0.00 | 0.00 | 73 | |
| 20260503055038 | 2 | 242 | 0.0 | 0.0 | 0.00 | 0.00 | 0.00 | 71 | |
| 20260503054534 | 2 | 251 | 0.0 | 1.6 | 0.00 | 0.00 | 0.00 | 71 | |
| 20260503054031 | 2 | 247 | 0.0 | 0.0 | 0.00 | 0.00 | 0.00 | 71 | |
| 20260503053529 | 2 | 242 | 0.0 | 1.6 | 0.00 | 0.00 | 0.00 | 71 | |
| 20260503053027 | 2 | 242 | 0.0 | 0.0 | 0.00 | 0.00 | 0.00 | 70 | |
| 20260503052523 | 2 | 251 | 0.0 | 0.0 | 0.00 | 0.00 | 0.00 | 70 | |
| 20260503052019 | 2 | 254 | 0.0 | 0.0 | 0.00 | 0.00 | 0.00 | 71 | |
| 20260503051515 | 2 | 252 | 0.0 | 0.0 | 0.00 | 0.00 | 0.00 | 71 | |
| 20260503051013 | 2 | 244 | 0.0 | 0.0 | 0.00 | 0.00 | 0.00 | 71 | |
| 20260503050508 | 2 | 247 | 0.0 | 0.0 | 0.00 | 0.00 | 0.00 | 71 | |
| 20260503050006 | 2 | 247 | 0.0 | 0.0 | 0.00 | 0.00 | 0.00 | 71 | |
| 20260503045503 | 2 | 244 | 0.0 | 0.0 | 0.00 | 0.00 | 0.00 | 71 | |
| 20260503045000 | 2 | 246 | 0.0 | 0.0 | 0.00 | 0.00 | 0.00 | 71 | |
| 20260503044457 | 2 | 246 | 0.0 | 0.0 | 0.00 | 0.00 | 0.00 | 71 | |
| 20260503043955 | 2 | 248 | 0.0 | 0.0 | 0.00 | 0.00 | 0.00 | 71 | |
| 20260503043450 | 2 | 248 | 0.0 | 0.0 | 0.00 | 0.00 | 0.00 | 70 | |
| 20260503042947 | 2 | 248 | 0.0 | 0.0 | 0.00 | 0.00 | 0.00 | 70 | |
| 20260503042444 | 2 | 251 | 0.0 | 0.0 | 0.00 | 0.00 | 0.00 | 70 | |
| 20260503041941 | 2 | 246 | 0.0 | 0.0 | 0.00 | 0.00 | 0.00 | 70 | |
| 20260503041437 | 2 | 247 | 0.0 | 0.0 | 0.00 | 0.00 | 0.00 | 69 | |
| 20260503040935 | 3 | 247 | 0.0 | 0.0 | 0.00 | 0.00 | 0.00 | 69 | |
| 20260503040432 | 3 | 239 | 0.0 | 0.0 | 0.00 | 0.00 | 0.00 | 69 | |
| 20260503035929 | 3 | 238 | 0.0 | 0.0 | 0.00 | 0.08 | 0.08 | 68 | |
| 20260503035426 | 3 | 238 | 0.0 | 0.0 | 0.00 | 0.08 | 0.08 | 68 | |
| 20260503034924 | 3 | 238 | 0.0 | 0.0 | 0.00 | 0.08 | 0.08 | 68 | |
| 20260503034421 | 3 | 238 | 0.0 | 0.0 | 0.00 | 0.08 | 0.08 | 68 | |
| 20260503033918 | 3 | 238 | 0.0 | 0.0 | 0.00 | 0.08 | 0.08 | 69 | |
| 20260503033415 | 3 | 238 | 0.0 | 0.0 | 0.00 | 0.08 | 0.08 | 69 | |
| 20260503032913 | 2 | 235 | 0.0 | 0.0 | 0.00 | 0.08 | 0.08 | 70 | |
| 20260503032412 | 2 | 235 | 0.0 | 0.0 | 0.00 | 0.08 | 0.08 | 71 | |
| 20260503031909 | 2 | 235 | 0.0 | 0.0 | 0.00 | 0.08 | 0.08 | 71 | |
| 20260503031407 | 2 | 235 | 0.0 | 0.0 | 0.00 | 0.08 | 0.08 | 71 | |
| 20260503030903 | 2 | 235 | 0.0 | 0.0 | 0.00 | 0.08 | 0.08 | 71 | |
| 20260503030359 | 3 | 235 | 0.0 | 0.0 | 0.00 | 0.08 | 0.08 | 70 | |
| 20260503025856 | 3 | 234 | 0.0 | 0.0 | 0.00 | 0.08 | 0.08 | 70 | |
| 20260503025353 | 3 | 234 | 0.0 | 0.0 | 0.00 | 0.08 | 0.08 | 70 | |
| 20260503024850 | 3 | 234 | 0.0 | 0.0 | 0.00 | 0.08 | 0.08 | 70 | |
| 20260503024347 | 3 | 234 | 0.0 | 0.0 | 0.00 | 0.08 | 0.08 | 68 | |
| 20260503023844 | 3 | 233 | 0.0 | 0.0 | 0.00 | 0.08 | 0.08 | 68 | |
| 20260503023341 | 3 | 233 | 0.0 | 0.0 | 0.00 | 0.08 | 0.08 | 67 | |
| 20260503022837 | 3 | 232 | 0.0 | 0.0 | 0.00 | 0.08 | 0.08 | 66 | |
| 20260503022332 | 4 | 229 | 0.0 | 0.0 | 0.00 | 0.08 | 0.08 | 65 | |
| 20260503021829 | 4 | 224 | 0.0 | 0.0 | 0.00 | 0.08 | 0.08 | 64 | |
| 20260503021325 | 5 | 231 | 0.0 | 0.0 | 0.00 | 0.08 | 0.08 | 63 | |
| 20260503020823 | 4 | 231 | 0.0 | 0.0 | 0.00 | 0.08 | 0.08 | 63 | |
| 20260503020321 | 5 | 233 | 0.0 | 0.0 | 0.00 | 0.08 | 0.08 | 63 | |
| 20260503015817 | 5 | 233 | 0.0 | 0.0 | 0.00 | 0.08 | 0.08 | 62 | |
| 20260503015314 | 5 | 233 | 0.0 | 0.0 | 0.00 | 0.08 | 0.08 | 62 | |
| 20260503014809 | 5 | 233 | 0.0 | 0.0 | 0.00 | 0.08 | 0.08 | 60 | |
| 20260503014307 | 5 | 232 | 0.0 | 0.0 | 0.00 | 0.08 | 0.08 | 59 | |
| 20260503013804 | 5 | 232 | 0.0 | 0.0 | 0.00 | 0.08 | 0.08 | 57 | |
| 20260503013302 | 5 | 231 | 0.0 | 0.0 | 0.00 | 0.08 | 0.08 | 57 | |
| 20260503012759 | 5 | 230 | 0.0 | 0.0 | 0.00 | 0.08 | 0.08 | 56 | |
| 20260503012256 | 6 | 230 | 0.0 | 0.0 | 0.00 | 0.08 | 0.08 | 55 | |
| 20260503011753 | 6 | 229 | 0.0 | 0.0 | 0.00 | 0.08 | 0.08 | 54 | |
| 20260503011250 | 6 | 224 | 0.0 | 0.0 | 0.00 | 0.08 | 0.08 | 53 | |
| 20260503010746 | 6 | 233 | 0.0 | 0.0 | 0.00 | 0.08 | 0.08 | 53 | |
| 20260503010243 | 6 | 234 | 0.0 | 0.0 | 0.00 | 0.08 | 0.08 | 51 | |
| 20260503005740 | 7 | 236 | 0.0 | 0.0 | 0.00 | 0.08 | 0.08 | 50 | |
| 20260503005238 | 7 | 238 | 0.0 | 0.0 | 0.00 | 0.08 | 0.08 | 48 | |
| 20260503004733 | 7 | 246 | 0.0 | 0.0 | 0.00 | 0.08 | 0.08 | 48 | |
| 20260503004232 | 7 | 258 | 0.0 | 0.0 | 0.00 | 0.08 | 0.08 | 47 | |
| 20260503003729 | 7 | 262 | 0.0 | 0.0 | 0.00 | 0.08 | 0.08 | 46 | |
| 20260503003226 | 7 | 265 | 0.0 | 1.6 | 0.00 | 0.08 | 0.08 | 46 | |
| 20260503002722 | 8 | 250 | 0.0 | 1.6 | 0.00 | 0.08 | 0.08 | 46 | |
| 20260503002219 | 8 | 260 | 0.0 | 3.2 | 0.00 | 0.08 | 0.08 | 46 | |
| 20260503001715 | 8 | 246 | 0.0 | 3.2 | 0.00 | 0.08 | 0.08 | 45 | |
| 20260503001212 | 8 | 270 | 1.6 | 4.8 | 0.00 | 0.08 | 0.08 | 44 | |
| 20260503000710 | 8 | 305 | 1.6 | 1.6 | 0.00 | 0.08 | 0.08 | 44 | |
| 20260503000207 | 8 | 257 | 0.0 | 1.6 | 0.00 | 0.08 | 0.08 | 45 | |
| 20260502235704 | 8 | 254 | 1.6 | 3.2 | 0.00 | 0.08 | 0.08 | 44 | |
| 20260502235202 | 8 | 306 | 0.0 | 3.2 | 0.00 | 0.08 | 0.08 | 43 | |
| 20260502234658 | 8 | 306 | 3.2 | 4.8 | 0.00 | 0.08 | 0.08 | 44 | |
| 20260502234155 | 8 | 262 | 0.0 | 3.2 | 0.00 | 0.08 | 0.08 | 44 | |
| 20260502233651 | 8 | 324 | 3.2 | 4.8 | 0.00 | 0.08 | 0.08 | 43 | |
| 20260502233148 | 8 | 244 | 1.6 | 1.6 | 0.00 | 0.08 | 0.08 | 44 | |
| 20260502232644 | 8 | 257 | 1.6 | 4.8 | 0.00 | 0.08 | 0.08 | 44 | |
| 20260502232141 | 8 | 267 | 3.2 | 3.2 | 0.00 | 0.08 | 0.08 | 44 | |
| 20260502231638 | 8 | 258 | 1.6 | 1.6 | 0.00 | 0.08 | 0.08 | 43 | |
| 20260502231136 | 8 | 261 | 0.0 | 1.6 | 0.00 | 0.08 | 0.08 | 43 | |
| 20260502230634 | 8 | 257 | 3.2 | 4.8 | 0.00 | 0.08 | 0.08 | 43 | |
| 20260502230132 | 8 | 252 | 1.6 | 4.8 | 0.00 | 0.08 | 0.08 | 43 | |
| 20260502225627 | 8 | 263 | 3.2 | 9.7 | 0.00 | 0.08 | 0.08 | 42 | |
| 20260502225125 | 8 | 322 | 6.4 | 8.0 | 0.00 | 0.08 | 0.08 | 43 | |
| 20260502224621 | 9 | 285 | 1.6 | 11.3 | 0.00 | 0.08 | 0.08 | 43 | |
| 20260502224118 | 8 | 262 | 4.8 | 9.7 | 0.00 | 0.08 | 0.08 | 42 | |
| 20260502223615 | 8 | 293 | 3.2 | 8.0 | 0.00 | 0.08 | 0.08 | 44 | |
| 20260502223114 | 9 | 320 | 6.4 | 9.7 | 0.00 | 0.08 | 0.08 | 42 | |
| 20260502222611 | 9 | 272 | 1.6 | 11.3 | 0.00 | 0.08 | 0.08 | 43 | |
| 20260502222107 | 9 | 279 | 1.6 | 3.2 | 0.00 | 0.08 | 0.08 | 44 | |
| 20260502221603 | 9 | 290 | 3.2 | 4.8 | 0.00 | 0.08 | 0.08 | 42 | |
| 20260502221100 | 9 | 294 | 4.8 | 8.0 | 0.00 | 0.08 | 0.08 | 43 | |
| 20260502220556 | 10 | 298 | 3.2 | 4.8 | 0.00 | 0.08 | 0.08 | 43 | |
| 20260502220053 | 10 | 316 | 1.6 | 3.2 | 0.00 | 0.08 | 0.08 | 44 | |
| 20260502215550 | 10 | 263 | 1.6 | 8.0 | 0.00 | 0.08 | 0.08 | 42 | |
| 20260502215047 | 10 | 267 | 4.8 | 12.9 | 0.00 | 0.08 | 0.08 | 40 | |
| 20260502214544 | 10 | 262 | 3.2 | 9.7 | 0.00 | 0.08 | 0.08 | 42 | |
| 20260502214041 | 9 | 317 | 4.8 | 8.0 | 0.00 | 0.08 | 0.08 | 41 | |
| 20260502213538 | 9 | 309 | 4.8 | 9.7 | 0.00 | 0.08 | 0.08 | 42 | |
| 20260502213036 | 9 | 303 | 8.0 | 12.9 | 0.00 | 0.08 | 0.08 | 41 | |
| 20260502212534 | 9 | 313 | 4.8 | 9.7 | 0.00 | 0.08 | 0.08 | 41 | |
| 20260502212032 | 9 | 341 | 6.4 | 9.7 | 0.00 | 0.08 | 0.08 | 42 |